FW8419 Weather Reports


Display with metric or nautical units.
time (UTC)temp
F
wind
direction
speed
MPH
gust
MPH
rain 1hr
in
rain 24hr
in
rain mn
in
humidity
%
barometer
mb
20260509143124 55 115 3.0 8.0 0.00 0.00 0.00 74 1022.2
20260509142122 54 122 3.0 11.0 0.00 0.00 0.00 74 1022.2
20260509141124 54 116 3.0 10.0 0.00 0.00 0.00 75 1022.2
20260509140122 54 126 3.0 11.0 0.00 0.00 0.00 75 1022.2
20260509135123 54 123 3.0 11.0 0.00 0.00 0.00 75 1022.2
20260509134124 54 124 1.0 5.0 0.00 0.00 0.00 76 1022.2
20260509133122 53 130 1.0 6.0 0.00 0.00 0.00 76 1022.2
20260509132124 53 132 3.0 6.0 0.00 0.00 0.00 76 1022.2
20260509131122 53 124 2.0 8.0 0.00 0.00 0.00 76 1022.2
20260509130123 53 115 2.0 8.0 0.00 0.00 0.00 77 1022.2
20260509125124 53 136 2.0 6.0 0.00 0.00 0.00 77 1022.2
20260509124122 53 126 2.0 6.0 0.00 0.00 0.00 77 1022.2
20260509123123 53 125 2.0 6.0 0.00 0.00 0.00 77 1022.2
20260509122123 53 133 3.0 6.0 0.00 0.00 0.00 78 1022.1
20260509121124 53 125 4.0 10.0 0.00 0.00 0.00 77 1022.2
20260509120124 53 126 2.0 10.0 0.00 0.00 0.00 78 1022.3
20260509115122 53 128 4.0 11.0 0.00 0.00 0.00 78 1022.4
20260509114122 53 125 4.0 11.0 0.00 0.00 0.00 78 1022.4
20260509113143 53 121 5.0 13.0 0.00 0.00 0.00 77 1022.2
20260509112122 53 128 4.0 11.0 0.00 0.00 0.00 78 1022.2
20260509111124 53 125 5.0 11.0 0.00 0.00 0.00 77 1022.3
20260509110122 53 124 4.0 11.0 0.00 0.00 0.00 77 1022.4
20260509105124 53 129 5.0 13.0 0.00 0.00 0.00 77 1022.3
20260509104145 53 127 4.0 11.0 0.00 0.00 0.00 76 1022.3
20260509103143 53 125 3.0 11.0 0.00 0.00 0.00 76 1022.2
20260509102143 53 125 4.0 13.0 0.00 0.00 0.00 77 1022.2
20260509101143 53 125 5.0 13.0 0.00 0.00 0.00 77 1022.1
20260509100122 53 124 5.0 11.0 0.00 0.00 0.00 78 1022.2
20260509095124 53 121 4.0 11.0 0.00 0.00 0.00 78 1022.2
20260509094123 54 122 3.0 10.0 0.00 0.00 0.00 77 1022.2
20260509093124 54 119 3.0 13.0 0.00 0.00 0.00 77 1022.1
20260509092124 54 106 1.0 5.0 0.00 0.00 0.00 78 1022.1
20260509091122 54 120 1.0 6.0 0.00 0.00 0.00 77 1022.1
20260509090124 53 125 3.0 8.0 0.00 0.00 0.00 77 1022.1
20260509085145 54 122 4.0 10.0 0.00 0.00 0.00 77 1022.0
20260509084122 54 125 3.0 8.0 0.00 0.00 0.00 76 1022.0
20260509083122 54 128 1.0 5.0 0.00 0.00 0.00 76 1022.1
20260509082122 54 134 1.0 5.0 0.00 0.00 0.00 76 1022.1
20260509081122 54 136 3.0 6.0 0.00 0.00 0.00 77 1022.1
20260509080123 54 125 3.0 8.0 0.00 0.00 0.00 77 1022.2
20260509075122 54 116 1.0 5.0 0.00 0.00 0.00 77 1022.2
20260509074124 54 113 0.0 5.0 0.00 0.00 0.00 76 1022.1
20260509073122 54 130 1.0 6.0 0.00 0.00 0.00 75 1022.0
20260509072123 54 125 3.0 10.0 0.00 0.00 0.00 75 1022.0
20260509071143 54 128 3.0 8.0 0.00 0.00 0.00 74 1022.0
20260509070122 54 124 3.0 6.0 0.00 0.00 0.00 73 1022.0
20260509065143 55 131 3.0 8.0 0.00 0.00 0.00 73 1022.0
20260509064143 55 124 3.0 10.0 0.00 0.00 0.00 72 1022.1
20260509063124 55 124 2.0 6.0 0.00 0.00 0.00 71 1022.0
20260509062122 55 126 3.0 8.0 0.00 0.00 0.00 71 1022.0
20260509061123 56 126 3.0 6.0 0.00 0.00 0.00 70 1022.0
20260509060124 56 113 0.0 3.0 0.00 0.00 0.00 70 1022.1
20260509055124 56 128 1.0 6.0 0.00 0.00 0.00 69 1021.9
20260509054122 56 115 1.0 5.0 0.00 0.00 0.00 68 1021.9
20260509053145 56 134 1.0 6.0 0.00 0.00 0.00 67 1021.9
20260509052122 56 127 1.0 5.0 0.00 0.00 0.00 67 1021.8
20260509051123 56 128 1.0 6.0 0.00 0.00 0.00 66 1021.8
20260509050122 57 152 1.0 8.0 0.00 0.00 0.00 66 1021.8
20260509045124 57 136 2.0 6.0 0.00 0.00 0.00 66 1021.8
20260509044124 57 146 2.0 8.0 0.00 0.00 0.00 66 1021.7
20260509043122 57 150 2.0 8.0 0.00 0.00 0.00 66 1021.6
20260509042123 57 143 2.0 10.0 0.00 0.00 0.00 65 1021.4
20260509041125 57 171 0.0 5.0 0.00 0.00 0.00 65 1021.4
20260509040143 57 147 1.0 6.0 0.00 0.00 0.00 65 1021.3
20260509035122 57 165 1.0 8.0 0.00 0.00 0.00 65 1021.3
20260509034122 57 156 2.0 13.0 0.00 0.00 0.00 64 1021.2
20260509033124 57 221 1.0 6.0 0.00 0.00 0.00 65 1021.1
20260509032145 58 223 2.0 10.0 0.00 0.00 0.00 64 1021.0
20260509031143 58 231 3.0 10.0 0.00 0.00 0.00 63 1020.9
20260509030122 58 235 2.0 11.0 0.00 0.00 0.00 62 1020.8
20260509025124 58 227 2.0 10.0 0.00 0.00 0.00 62 1020.7
20260509024122 59 235 2.0 8.0 0.00 0.00 0.00 61 1020.6
20260509023123 59 223 2.0 8.0 0.00 0.00 0.00 62 1020.5
20260509022143 59 227 2.0 10.0 0.00 0.00 0.00 61 1020.6
20260509021124 59 247 4.0 14.0 0.00 0.00 0.00 61 1020.5
20260509020123 59 242 3.0 10.0 0.00 0.00 0.00 60 1020.4
20260509015123 59 233 3.0 10.0 0.00 0.00 0.00 59 1020.5
20260509014123 60 224 3.0 13.0 0.00 0.00 0.00 58 1020.5
20260509013122 60 217 3.0 14.0 0.00 0.00 0.00 57 1020.5
20260509012124 61 174 2.0 14.0 0.00 0.00 0.00 56 1020.3
20260509011122 62 241 2.0 8.0 0.00 0.00 0.00 54 1020.4
20260509010122 63 252 1.0 8.0 0.00 0.00 0.00 53 1020.4
20260509005143 63 252 2.0 6.0 0.00 0.00 0.00 54 1020.4
20260509004122 62 201 3.0 10.0 0.00 0.00 0.00 54 1020.4
20260509003122 62 223 1.0 6.0 0.00 0.00 0.00 55 1020.4
20260509002124 61 158 3.0 13.0 0.00 0.00 0.00 57 1020.4
20260509001122 60 233 1.0 6.0 0.00 0.00 0.00 57 1020.4
20260509000122 61 220 3.0 14.0 0.00 0.00 0.00 57 1020.3
20260508235122 60 207 2.0 8.0 0.00 0.00 0.00 57 1020.3
20260508234122 60 221 2.0 11.0 0.00 0.00 0.00 58 1020.3
20260508233123 60 243 4.0 16.0 0.00 0.00 0.00 58 1020.2
20260508232145 60 228 4.0 14.0 0.00 0.00 0.00 58 1020.2
20260508231124 60 237 4.0 16.0 0.00 0.00 0.00 60 1020.2
20260508230143 60 238 4.0 19.0 0.00 0.00 0.00 60 1020.1
20260508225124 60 210 2.0 8.0 0.00 0.00 0.00 60 1020.0
20260508224143 59 194 2.0 13.0 0.00 0.00 0.00 61 1020.0
20260508223123 59 145 5.0 18.0 0.00 0.00 0.00 61 1020.1
20260508222145 59 265 3.0 13.0 0.00 0.00 0.00 61 1020.0
20260508221145 60 225 4.0 16.0 0.00 0.00 0.00 61 1020.0
20260508220122 60 228 4.0 14.0 0.00 0.00 0.00 60 1019.9
20260508215122 60 222 4.0 18.0 0.00 0.00 0.00 62 1019.9
20260508214124 60 213 2.0 14.0 0.00 0.00 0.00 61 1019.9
20260508213122 59 235 3.0 11.0 0.00 0.00 0.00 62 1019.9
20260508212122 59 214 2.0 14.0 0.00 0.00 0.00 63 1020.0
20260508211123 59 173 3.0 19.0 0.00 0.00 0.00 63 1019.8
20260508210123 59 219 4.0 11.0 0.00 0.00 0.00 64 1019.7
20260508205122 58 158 5.0 19.0 0.00 0.00 0.00 66 1019.6
20260508204122 58 206 4.0 14.0 0.00 0.00 0.00 65 1019.6
20260508203143 58 155 6.0 19.0 0.00 0.00 0.00 65 1019.6
20260508202124 58 152 7.0 26.0 0.00 0.00 0.00 66 1019.5
20260508201122 58 155 6.0 24.0 0.00 0.00 0.00 66 1019.5
20260508200145 58 146 6.0 19.0 0.00 0.00 0.00 65 1019.3
20260508195122 59 184 2.0 13.0 0.00 0.00 0.00 64 1019.2
20260508194122 59 151 3.0 14.0 0.00 0.00 0.00 65 1019.1
20260508193122 60 203 3.0 16.0 0.00 0.00 0.00 64 1019.0
20260508192124 59 226 3.0 14.0 0.00 0.00 0.00 66 1018.8
20260508191122 59 214 4.0 13.0 0.00 0.00 0.00 65 1018.9
20260508190124 59 167 4.0 19.0 0.00 0.00 0.00 66 1018.8
20260508185122 58 217 4.0 14.0 0.00 0.00 0.00 65 1018.7
20260508184124 58 168 2.0 8.0 0.00 0.00 0.00 66 1018.6
20260508183124 57 219 3.0 13.0 0.00 0.00 0.00 68 1018.5
20260508182143 57 225 4.0 14.0 0.00 0.00 0.00 69 1018.5
20260508181124 57 219 4.0 14.0 0.00 0.00 0.00 69 1018.5
20260508180122 57 196 3.0 14.0 0.00 0.00 0.00 70 1018.2
20260508175122 57 179 4.0 14.0 0.00 0.00 0.00 72 1018.0
20260508174124 57 144 5.0 14.0 0.00 0.00 0.00 72 1018.0
20260508173122 57 159 5.0 18.0 0.00 0.00 0.00 72 1018.0
20260508172124 58 199 2.0 13.0 0.00 0.00 0.00 71 1017.7
20260508171124 58 167 4.0 21.0 0.00 0.00 0.00 71 1017.5
20260508170143 58 131 9.0 21.0 0.00 0.00 0.00 71 1017.3
20260508165123 58 132 5.0 13.0 0.00 0.00 0.00 72 1017.4
20260508164144 58 134 5.0 18.0 0.00 0.00 0.00 73 1017.3
20260508163122 57 150 6.0 18.0 0.00 0.00 0.00 73 1017.3
20260508162122 58 145 2.0 10.0 0.00 0.00 0.00 73 1017.2
20260508161123 57 142 5.0 19.0 0.00 0.00 0.00 73 1017.1
20260508160122 57 131 6.0 19.0 0.00 0.00 0.00 73 1016.9
20260508155143 57 144 3.0 11.0 0.00 0.00 0.00 74 1016.8
20260508154122 57 160 2.0 11.0 0.00 0.00 0.00 74 1016.8
20260508153123 57 233 1.0 10.0 0.00 0.00 0.00 76 1016.9
20260508152124 56 162 1.0 10.0 0.00 0.00 0.00 76 1016.8
20260508151145 56 221 3.0 11.0 0.00 0.00 0.00 76 1016.8
20260508150122 57 224 1.0 6.0 0.00 0.00 0.00 76 1016.8
20260508145124 56 0 0.0 0.0 0.00 0.00 0.00 77 1016.6
20260508144124 56 134 0.0 3.0 0.00 0.00 0.00 77 1016.5